| time (UTC) | temp C | wind direction | speed KPH | gust KPH | rain 1hr cm | rain 24hr cm | rain mn cm | humidity % | barometer mb |
| 20260508054003 | 7 | 19 | 3.2 | 8.0 | 0.00 | 1.47 | 0.00 | 99 | 1001.4 |
| 20260508053503 | 7 | 17 | 1.6 | 8.0 | 0.00 | 1.47 | 0.00 | 99 | 1001.2 |
| 20260508053003 | 7 | 0 | 0.0 | 3.2 | 0.00 | 1.47 | 0.00 | 99 | 1001.1 |
| 20260508052503 | 7 | 5 | 0.0 | 3.2 | 0.00 | 1.47 | 0.00 | 98 | 1001.0 |
| 20260508052003 | 7 | 5 | 1.6 | 6.4 | 0.00 | 1.47 | 0.00 | 98 | 1001.0 |
| 20260508051503 | 7 | 5 | 0.0 | 6.4 | 0.00 | 1.47 | 0.00 | 98 | 1000.9 |
| 20260508051003 | 7 | 0 | 0.0 | 0.0 | 0.00 | 1.47 | 0.00 | 98 | 1001.0 |
| 20260508050504 | 7 | 13 | 0.0 | 8.0 | 0.00 | 1.47 | 0.00 | 98 | 1001.0 |
| 20260508050003 | 7 | 10 | 1.6 | 8.0 | 0.00 | 1.47 | 0.00 | 98 | 1001.1 |
| 20260508045503 | 7 | 7 | 3.2 | 8.0 | 0.00 | 1.47 | 0.00 | 98 | 1001.2 |
| 20260508045006 | 7 | 5 | 4.8 | 8.0 | 0.00 | 1.47 | 0.00 | 98 | 1001.3 |
| 20260508044503 | 8 | 3 | 4.8 | 8.0 | 0.00 | 1.47 | 0.00 | 98 | 1001.2 |
| 20260508044003 | 8 | 354 | 4.8 | 9.7 | 0.00 | 1.47 | 0.00 | 98 | 1001.1 |
| 20260508043504 | 8 | 350 | 6.4 | 14.5 | 0.00 | 1.47 | 0.00 | 98 | 1001.2 |
| 20260508043003 | 8 | 357 | 6.4 | 14.5 | 0.00 | 1.47 | 0.00 | 98 | 1001.4 |
| 20260508042503 | 9 | 354 | 6.4 | 16.1 | 0.00 | 1.47 | 0.00 | 98 | 1001.4 |
| 20260508042003 | 9 | 344 | 6.4 | 16.1 | 0.00 | 1.47 | 0.00 | 98 | 1001.4 |
| 20260508041524 | 9 | 324 | 4.8 | 16.1 | 0.00 | 1.47 | 0.00 | 99 | 1001.4 |
| 20260508041024 | 9 | 303 | 4.8 | 14.5 | 0.00 | 1.47 | 0.00 | 99 | 1001.3 |
| 20260508040503 | 9 | 278 | 4.8 | 11.3 | 0.00 | 1.47 | 0.00 | 99 | 1001.5 |
| 20260508040003 | 9 | 268 | 4.8 | 9.7 | 0.00 | 1.47 | 0.00 | 99 | 1001.6 |
| 20260508035503 | 9 | 272 | 6.4 | 12.9 | 0.00 | 1.47 | 0.00 | 99 | 1001.5 |
| 20260508035024 | 9 | 277 | 6.4 | 12.9 | 0.00 | 1.47 | 0.00 | 99 | 1001.5 |
| 20260508034503 | 9 | 274 | 4.8 | 11.3 | 0.00 | 1.47 | 0.00 | 99 | 1001.4 |
| 20260508034025 | 9 | 271 | 4.8 | 11.3 | 0.00 | 1.47 | 0.00 | 99 | 1001.6 |
| 20260508033503 | 9 | 272 | 4.8 | 11.3 | 0.00 | 1.47 | 0.00 | 99 | 1001.5 |
| 20260508033003 | 9 | 273 | 6.4 | 14.5 | 0.00 | 1.47 | 0.00 | 99 | 1001.5 |
| 20260508032524 | 9 | 269 | 8.0 | 14.5 | 0.00 | 1.47 | 0.00 | 99 | 1001.5 |
| 20260508032003 | 9 | 262 | 8.0 | 14.5 | 0.00 | 1.47 | 0.00 | 99 | 1001.7 |
| 20260508031503 | 9 | 260 | 6.4 | 11.3 | 0.00 | 1.47 | 0.00 | 99 | 1001.7 |
| 20260508031003 | 9 | 262 | 6.4 | 11.3 | 0.00 | 1.47 | 0.00 | 99 | 1001.6 |
| 20260508030524 | 9 | 256 | 6.4 | 11.3 | 0.00 | 1.47 | 0.00 | 99 | 1001.7 |
| 20260508030004 | 9 | 247 | 6.4 | 11.3 | 0.00 | 1.47 | 0.00 | 99 | 1001.7 |
| 20260508025503 | 9 | 244 | 4.8 | 11.3 | 0.00 | 1.47 | 1.47 | 99 | 1001.4 |
| 20260508025024 | 9 | 243 | 4.8 | 11.3 | 0.00 | 1.47 | 1.47 | 99 | 1001.5 |
| 20260508024503 | 9 | 243 | 4.8 | 9.7 | 0.00 | 1.47 | 1.47 | 99 | 1001.4 |
| 20260508024003 | 9 | 238 | 4.8 | 11.3 | 0.00 | 1.47 | 1.47 | 99 | 1001.2 |
| 20260508023503 | 9 | 234 | 6.4 | 11.3 | 0.00 | 1.47 | 1.47 | 99 | 1001.1 |
| 20260508023003 | 8 | 230 | 4.8 | 11.3 | 0.00 | 1.47 | 1.47 | 99 | 1001.2 |
| 20260508022503 | 8 | 230 | 6.4 | 9.7 | 0.00 | 1.47 | 1.47 | 99 | 1001.4 |
| 20260508022025 | 8 | 236 | 6.4 | 11.3 | 0.00 | 1.47 | 1.47 | 99 | 1001.2 |
| 20260508021504 | 8 | 237 | 6.4 | 16.1 | 0.00 | 1.47 | 1.47 | 99 | 1001.1 |
| 20260508021003 | 8 | 237 | 8.0 | 16.1 | 0.00 | 1.47 | 1.47 | 99 | 1001.3 |
| 20260508020524 | 8 | 232 | 9.7 | 16.1 | 0.00 | 1.47 | 1.47 | 99 | 1001.5 |
| 20260508020003 | 8 | 228 | 9.7 | 19.3 | 0.00 | 1.47 | 1.47 | 99 | 1001.5 |
| 20260508015503 | 8 | 228 | 9.7 | 19.3 | 0.00 | 1.47 | 1.47 | 99 | 1001.4 |
| 20260508015003 | 8 | 229 | 8.0 | 16.1 | 0.00 | 1.47 | 1.47 | 98 | 1001.4 |
| 20260508014503 | 8 | 223 | 8.0 | 14.5 | 0.00 | 1.47 | 1.47 | 98 | 1001.2 |
| 20260508014003 | 8 | 220 | 9.7 | 14.5 | 0.00 | 1.47 | 1.47 | 98 | 1001.1 |
| 20260508013504 | 8 | 215 | 9.7 | 14.5 | 0.00 | 1.47 | 1.47 | 98 | 1000.9 |
| 20260508013024 | 8 | 203 | 9.7 | 14.5 | 0.00 | 1.47 | 1.47 | 98 | 1001.0 |
| 20260508012503 | 8 | 198 | 9.7 | 16.1 | 0.00 | 1.47 | 1.47 | 98 | 1000.9 |
| 20260508012003 | 8 | 202 | 9.7 | 16.1 | 0.00 | 1.47 | 1.47 | 98 | 1001.1 |
| 20260508011504 | 8 | 203 | 8.0 | 14.5 | 0.00 | 1.47 | 1.47 | 98 | 1001.3 |
| 20260508011006 | 8 | 197 | 8.0 | 16.1 | 0.00 | 1.47 | 1.47 | 98 | 1001.3 |
| 20260508010503 | 8 | 197 | 9.7 | 16.1 | 0.00 | 1.47 | 1.47 | 98 | 1001.6 |
| 20260508010003 | 8 | 192 | 9.7 | 16.1 | 0.00 | 1.47 | 1.47 | 98 | 1001.8 |
| 20260508005504 | 8 | 190 | 9.7 | 17.7 | 0.00 | 1.47 | 1.47 | 98 | 1001.7 |
| 20260508005004 | 8 | 200 | 9.7 | 17.7 | 0.00 | 1.47 | 1.47 | 98 | 1001.7 |
| 20260508004506 | 8 | 203 | 9.7 | 16.1 | 0.00 | 1.47 | 1.47 | 98 | 1001.5 |
| 20260508004003 | 8 | 202 | 9.7 | 19.3 | 0.00 | 1.47 | 1.47 | 98 | 1001.5 |
| 20260508003503 | 8 | 206 | 9.7 | 19.3 | 0.00 | 1.47 | 1.47 | 98 | 1001.4 |
| 20260508003025 | 8 | 202 | 9.7 | 25.7 | 0.00 | 1.47 | 1.47 | 98 | 1001.6 |
| 20260508002503 | 8 | 194 | 12.9 | 25.7 | 0.00 | 1.47 | 1.47 | 98 | 1001.5 |
| 20260508002003 | 8 | 193 | 14.5 | 27.4 | 0.00 | 1.47 | 1.47 | 98 | 1001.6 |
| 20260508001503 | 8 | 192 | 14.5 | 27.4 | 0.00 | 1.47 | 1.47 | 98 | 1001.6 |
| 20260508001024 | 8 | 191 | 14.5 | 24.1 | 0.00 | 1.47 | 1.47 | 98 | 1001.7 |
| 20260508000503 | 8 | 191 | 14.5 | 24.1 | 0.00 | 1.47 | 1.47 | 98 | 1001.9 |
| 20260508000004 | 8 | 188 | 12.9 | 24.1 | 0.00 | 1.47 | 1.47 | 98 | 1002.1 |
| 20260507235503 | 8 | 191 | 11.3 | 22.5 | 0.00 | 1.47 | 1.47 | 98 | 1002.0 |
| 20260507235024 | 8 | 195 | 11.3 | 25.7 | 0.00 | 1.47 | 1.47 | 97 | 1001.8 |
| 20260507234503 | 8 | 194 | 14.5 | 25.7 | 0.00 | 1.47 | 1.47 | 97 | 1001.8 |
| 20260507234003 | 8 | 196 | 14.5 | 24.1 | 0.00 | 1.47 | 1.47 | 98 | 1002.1 |
| 20260507233003 | 9 | 204 | 14.5 | 24.1 | 0.00 | 1.47 | 1.47 | 97 | 1002.3 |
| 20260507232503 | 9 | 201 | 14.5 | 24.1 | 0.00 | 1.47 | 1.47 | 97 | 1002.3 |
| 20260507232004 | 9 | 191 | 16.1 | 25.7 | 0.00 | 1.47 | 1.47 | 97 | 1002.3 |
| 20260507231504 | 9 | 187 | 16.1 | 29.0 | 0.00 | 1.47 | 1.47 | 97 | 1002.1 |
| 20260507231003 | 9 | 193 | 16.1 | 29.0 | 0.03 | 1.47 | 1.47 | 97 | 1002.6 |
| 20260507230503 | 9 | 195 | 14.5 | 29.0 | 0.03 | 1.47 | 1.47 | 97 | 1002.4 |
| 20260507230003 | 9 | 197 | 11.3 | 25.7 | 0.03 | 1.47 | 1.47 | 97 | 1002.1 |
| 20260507225503 | 9 | 199 | 12.9 | 25.7 | 0.03 | 1.47 | 1.47 | 97 | 1002.0 |
| 20260507225003 | 9 | 201 | 14.5 | 25.7 | 0.03 | 1.47 | 1.47 | 97 | 1002.7 |
| 20260507224504 | 9 | 201 | 12.9 | 25.7 | 0.03 | 1.47 | 1.47 | 97 | 1002.5 |
| 20260507224003 | 9 | 197 | 14.5 | 24.1 | 0.03 | 1.47 | 1.47 | 97 | 1002.5 |
| 20260507223503 | 9 | 198 | 14.5 | 27.4 | 0.03 | 1.47 | 1.47 | 97 | 1002.1 |
| 20260507223003 | 9 | 196 | 14.5 | 27.4 | 0.03 | 1.47 | 1.47 | 97 | 1002.2 |
| 20260507222503 | 9 | 195 | 17.7 | 33.8 | 0.03 | 1.47 | 1.47 | 97 | 1002.4 |
| 20260507222003 | 9 | 191 | 19.3 | 33.8 | 0.03 | 1.47 | 1.47 | 97 | 1002.4 |
| 20260507221503 | 9 | 190 | 17.7 | 32.2 | 0.03 | 1.47 | 1.47 | 97 | 1002.3 |
| 20260507221003 | 9 | 195 | 19.3 | 35.4 | 0.03 | 1.45 | 1.45 | 97 | 1002.4 |
| 20260507220024 | 9 | 186 | 20.9 | 35.4 | 0.08 | 1.45 | 1.45 | 97 | 1001.9 |
| 20260507215503 | 9 | 185 | 22.5 | 35.4 | 0.13 | 1.45 | 1.45 | 97 | 1001.9 |
| 20260507215003 | 9 | 181 | 22.5 | 38.6 | 0.18 | 1.45 | 1.45 | 97 | 1001.6 |
| 20260507214503 | 9 | 178 | 22.5 | 38.6 | 0.23 | 1.45 | 1.45 | 97 | 1001.6 |
| 20260507214003 | 9 | 171 | 24.1 | 33.8 | 0.25 | 1.45 | 1.45 | 97 | 1001.6 |
| 20260507213503 | 9 | 169 | 24.1 | 38.6 | 0.30 | 1.45 | 1.45 | 97 | 1001.6 |
| 20260507213003 | 9 | 169 | 22.5 | 38.6 | 0.36 | 1.45 | 1.45 | 97 | 1001.6 |
| 20260507212503 | 9 | 168 | 22.5 | 40.2 | 0.41 | 1.45 | 1.45 | 96 | 1002.1 |
| 20260507211503 | 9 | 177 | 17.7 | 32.2 | 0.53 | 1.45 | 1.45 | 96 | 1002.5 |
| 20260507211003 | 9 | 179 | 16.1 | 30.6 | 0.61 | 1.45 | 1.45 | 96 | 1002.9 |
| 20260507210504 | 9 | 178 | 17.7 | 32.2 | 0.69 | 1.42 | 1.42 | 96 | 1003.2 |
| 20260507210024 | 9 | 179 | 17.7 | 32.2 | 0.71 | 1.37 | 1.37 | 96 | 1003.2 |
| 20260507205503 | 10 | 182 | 17.7 | 35.4 | 0.74 | 1.35 | 1.35 | 96 | 1003.8 |
| 20260507205025 | 10 | 181 | 17.7 | 35.4 | 0.74 | 1.27 | 1.27 | 96 | 1003.8 |
| 20260507204503 | 10 | 188 | 20.9 | 40.2 | 0.74 | 1.24 | 1.24 | 96 | 1003.9 |
| 20260507204003 | 10 | 192 | 22.5 | 40.2 | 0.71 | 1.19 | 1.19 | 96 | 1003.9 |
| 20260507203503 | 10 | 195 | 20.9 | 37.0 | 0.79 | 1.17 | 1.17 | 96 | 1004.2 |
| 20260507203003 | 10 | 207 | 19.3 | 35.4 | 0.76 | 1.09 | 1.09 | 97 | 1004.5 |
| 20260507202503 | 10 | 202 | 17.7 | 30.6 | 0.71 | 1.07 | 1.07 | 97 | 1004.5 |
| 20260507202003 | 10 | 187 | 17.7 | 33.8 | 0.71 | 0.99 | 0.99 | 97 | 1003.9 |
| 20260507201503 | 10 | 186 | 19.3 | 33.8 | 0.64 | 0.91 | 0.91 | 97 | 1003.9 |
| 20260507201003 | 10 | 176 | 22.5 | 37.0 | 0.61 | 0.84 | 0.84 | 97 | 1004.0 |
| 20260507200506 | 10 | 177 | 22.5 | 37.0 | 0.53 | 0.74 | 0.74 | 96 | 1004.0 |
| 20260507200024 | 10 | 178 | 24.1 | 48.3 | 0.51 | 0.66 | 0.69 | 96 | 1004.1 |
| 20260507195525 | 10 | 177 | 25.7 | 48.3 | 0.48 | 0.61 | 0.61 | 96 | 1004.1 |
| 20260507184002 | 10 | 178 | 22.5 | 48.3 | 0.05 | 0.05 | 0.05 | 95 | 1004.9 |
| 20260507183502 | 10 | 180 | 25.7 | 51.5 | 0.05 | 0.05 | 0.05 | 95 | 1004.9 |
| 20260507183002 | 11 | 180 | 30.6 | 51.5 | 0.05 | 0.05 | 0.05 | 94 | 1004.8 |
| 20260507182502 | 11 | 182 | 30.6 | 45.1 | 0.03 | 0.03 | 0.03 | 93 | 1004.8 |
| 20260507182002 | 11 | 183 | 29.0 | 57.9 | 0.03 | 0.03 | 0.03 | 93 | 1004.8 |
| 20260507181502 | 11 | 180 | 27.4 | 57.9 | 0.00 | 0.00 | 0.00 | 92 | 1004.7 |
| 20260507181002 | 11 | 178 | 29.0 | 51.5 | 0.00 | 0.00 | 0.00 | 91 | 1004.9 |
| 20260507180523 | 11 | 179 | 30.6 | 61.2 | 0.00 | 0.00 | 0.00 | 91 | 1005.0 |
| 20260507180023 | 11 | 178 | 30.6 | 61.2 | 0.00 | 0.00 | 0.00 | 91 | 1005.0 |
| 20260507175502 | 11 | 178 | 30.6 | 53.1 | 0.00 | 0.00 | 0.00 | 91 | 1005.1 |
| 20260507175002 | 12 | 176 | 30.6 | 57.9 | 0.00 | 0.00 | 0.00 | 90 | 1005.2 |
| 20260507174523 | 12 | 174 | 29.0 | 57.9 | 0.00 | 0.00 | 0.00 | 90 | 1005.3 |
| 20260507174002 | 12 | 171 | 27.4 | 54.7 | 0.00 | 0.00 | 0.00 | 89 | 1005.6 |
| 20260507173502 | 12 | 168 | 24.1 | 46.7 | 0.00 | 0.00 | 0.00 | 88 | 1005.7 |
| 20260507173002 | 13 | 165 | 25.7 | 41.8 | 0.00 | 0.00 | 0.00 | 87 | 1005.5 |
| 20260507172502 | 13 | 169 | 25.7 | 51.5 | 0.00 | 0.00 | 0.00 | 87 | 1005.6 |
| 20260507172023 | 13 | 168 | 24.1 | 51.5 | 0.00 | 0.00 | 0.00 | 87 | 1005.5 |
| 20260507171502 | 13 | 170 | 25.7 | 54.7 | 0.00 | 0.00 | 0.00 | 87 | 1005.5 |
| 20260507171002 | 13 | 174 | 25.7 | 54.7 | 0.00 | 0.00 | 0.00 | 88 | 1005.8 |
| 20260507170523 | 13 | 176 | 25.7 | 49.9 | 0.00 | 0.00 | 0.00 | 88 | 1006.0 |
| 20260507170023 | 13 | 177 | 25.7 | 46.7 | 0.00 | 0.00 | 0.00 | 88 | 1006.2 |
| 20260507165523 | 13 | 175 | 27.4 | 49.9 | 0.00 | 0.00 | 0.00 | 88 | 1006.2 |
| 20260507165002 | 13 | 176 | 29.0 | 49.9 | 0.00 | 0.00 | 0.00 | 88 | 1006.3 |
| 20260507164502 | 13 | 179 | 27.4 | 49.9 | 0.00 | 0.00 | 0.00 | 88 | 1006.4 |
| 20260507164002 | 12 | 182 | 27.4 | 46.7 | 0.00 | 0.00 | 0.00 | 89 | 1006.6 |
| 20260507163502 | 12 | 181 | 29.0 | 62.8 | 0.00 | 0.00 | 0.00 | 90 | 1006.8 |
| 20260507163002 | 12 | 176 | 25.7 | 62.8 | 0.00 | 0.00 | 0.00 | 90 | 1007.0 |
| 20260507162502 | 12 | 180 | 20.9 | 41.8 | 0.00 | 0.00 | 0.00 | 90 | 1007.2 |
| 20260507162002 | 12 | 190 | 20.9 | 37.0 | 0.00 | 0.00 | 0.00 | 91 | 1007.3 |
| 20260507161523 | 12 | 189 | 20.9 | 43.5 | 0.00 | 0.00 | 0.00 | 92 | 1007.6 |
| 20260507161002 | 12 | 188 | 22.5 | 46.7 | 0.00 | 0.00 | 0.00 | 92 | 1007.8 |
| 20260507160502 | 12 | 189 | 24.1 | 46.7 | 0.00 | 0.00 | 0.00 | 91 | 1008.0 |
| 20260507160003 | 12 | 191 | 24.1 | 45.1 | 0.00 | 0.00 | 0.00 | 91 | 1007.9 |
| 20260507155502 | 12 | 191 | 25.7 | 43.5 | 0.00 | 0.00 | 0.00 | 91 | 1008.0 |
| 20260507155002 | 12 | 188 | 25.7 | 49.9 | 0.00 | 0.00 | 0.00 | 91 | 1008.0 |
| 20260507154523 | 12 | 186 | 22.5 | 49.9 | 0.00 | 0.00 | 0.00 | 91 | 1008.1 |
| 20260507154002 | 12 | 190 | 20.9 | 45.1 | 0.00 | 0.00 | 0.00 | 90 | 1008.2 |
| 20260507153502 | 12 | 191 | 24.1 | 48.3 | 0.00 | 0.00 | 0.00 | 91 | 1008.6 |
| 20260507153002 | 12 | 188 | 24.1 | 48.3 | 0.00 | 0.00 | 0.00 | 91 | 1008.6 |
| 20260507152523 | 12 | 185 | 20.9 | 41.8 | 0.00 | 0.00 | 0.00 | 91 | 1008.7 |
| 20260507152002 | 12 | 190 | 20.9 | 38.6 | 0.00 | 0.00 | 0.00 | 91 | 1008.9 |
| 20260507151502 | 12 | 194 | 24.1 | 46.7 | 0.00 | 0.00 | 0.00 | 92 | 1009.0 |
| 20260507151002 | 12 | 195 | 25.7 | 46.7 | 0.00 | 0.00 | 0.00 | 91 | 1008.9 |
| 20260507150502 | 12 | 196 | 25.7 | 41.8 | 0.00 | 0.00 | 0.00 | 91 | 1009.1 |
| 20260507150023 | 12 | 192 | 24.1 | 41.8 | 0.00 | 0.00 | 0.00 | 92 | 1009.1 |
| 20260507145502 | 12 | 187 | 22.5 | 43.5 | 0.00 | 0.00 | 0.00 | 91 | 1009.2 |
| 20260507145002 | 12 | 186 | 22.5 | 48.3 | 0.00 | 0.00 | 0.00 | 91 | 1009.1 |
| 20260507144502 | 12 | 189 | 24.1 | 51.5 | 0.00 | 0.00 | 0.00 | 91 | 1009.5 |
| 20260507144002 | 12 | 185 | 24.1 | 51.5 | 0.00 | 0.00 | 0.00 | 91 | 1009.6 |
| 20260507143502 | 12 | 186 | 24.1 | 43.5 | 0.00 | 0.00 | 0.00 | 91 | 1009.7 |
| 20260507143023 | 12 | 191 | 25.7 | 54.7 | 0.00 | 0.00 | 0.00 | 90 | 1009.9 |
| 20260507142523 | 12 | 192 | 27.4 | 54.7 | 0.00 | 0.00 | 0.00 | 90 | 1010.1 |
| 20260507142002 | 12 | 191 | 22.5 | 53.1 | 0.00 | 0.00 | 0.00 | 90 | 1010.2 |
| 20260507141502 | 12 | 188 | 24.1 | 48.3 | 0.00 | 0.00 | 0.00 | 90 | 1010.3 |
| 20260507141023 | 13 | 186 | 24.1 | 46.7 | 0.00 | 0.00 | 0.00 | 90 | 1010.2 |
| 20260507140502 | 13 | 185 | 25.7 | 53.1 | 0.00 | 0.00 | 0.00 | 89 | 1010.3 |
| 20260507140002 | 13 | 183 | 25.7 | 53.1 | 0.00 | 0.00 | 0.00 | 89 | 1010.1 |
| 20260507135502 | 13 | 185 | 25.7 | 53.1 | 0.00 | 0.00 | 0.00 | 89 | 1010.1 |
| 20260507135002 | 12 | 183 | 29.0 | 53.1 | 0.00 | 0.00 | 0.00 | 89 | 1010.2 |
| 20260507134502 | 12 | 179 | 29.0 | 53.1 | 0.00 | 0.00 | 0.00 | 89 | 1010.3 |
| 20260507134023 | 12 | 175 | 25.7 | 59.5 | 0.00 | 0.00 | 0.00 | 89 | 1010.1 |
| 20260507133502 | 12 | 173 | 24.1 | 59.5 | 0.00 | 0.00 | 0.00 | 90 | 1010.1 |
| 20260507133002 | 12 | 172 | 22.5 | 48.3 | 0.00 | 0.00 | 0.00 | 91 | 1009.8 |
| 20260507132502 | 12 | 176 | 25.7 | 45.1 | 0.00 | 0.00 | 0.00 | 91 | 1010.0 |
| 20260507132002 | 12 | 177 | 30.6 | 48.3 | 0.00 | 0.00 | 0.00 | 92 | 1010.0 |
| 20260507131502 | 12 | 175 | 29.0 | 61.2 | 0.00 | 0.00 | 0.00 | 92 | 1010.2 |
| 20260507131002 | 12 | 173 | 24.1 | 61.2 | 0.00 | 0.00 | 0.00 | 92 | 1010.2 |
| 20260507130502 | 12 | 170 | 20.9 | 43.5 | 0.00 | 0.00 | 0.00 | 92 | 1010.1 |
| 20260507130002 | 11 | 171 | 19.3 | 33.8 | 0.00 | 0.00 | 0.00 | 93 | 1009.9 |
| 20260507125502 | 11 | 175 | 20.9 | 43.5 | 0.00 | 0.00 | 0.00 | 94 | 1009.9 |
| 20260507125023 | 11 | 177 | 22.5 | 43.5 | 0.00 | 0.00 | 0.00 | 94 | 1010.1 |
| 20260507124502 | 11 | 180 | 24.1 | 40.2 | 0.00 | 0.00 | 0.00 | 94 | 1010.4 |
| 20260507124002 | 11 | 180 | 25.7 | 43.5 | 0.00 | 0.00 | 0.00 | 94 | 1010.5 |
| 20260507123524 | 11 | 179 | 25.7 | 45.1 | 0.00 | 0.00 | 0.00 | 94 | 1010.4 |
| 20260507123002 | 11 | 179 | 25.7 | 46.7 | 0.00 | 0.00 | 0.00 | 94 | 1010.9 |
| 20260507122502 | 11 | 177 | 25.7 | 51.5 | 0.00 | 0.00 | 0.00 | 93 | 1011.1 |
| 20260507122023 | 11 | 175 | 27.4 | 51.5 | 0.00 | 0.00 | 0.00 | 93 | 1011.1 |
| 20260507121502 | 11 | 175 | 25.7 | 48.3 | 0.00 | 0.00 | 0.00 | 93 | 1011.2 |
| 20260507121002 | 11 | 175 | 24.1 | 48.3 | 0.00 | 0.00 | 0.00 | 93 | 1011.4 |
| 20260507120502 | 11 | 179 | 27.4 | 48.3 | 0.00 | 0.00 | 0.00 | 93 | 1011.6 |
| 20260507120023 | 11 | 179 | 27.4 | 48.3 | 0.00 | 0.00 | 0.00 | 93 | 1011.8 |
| 20260507115502 | 11 | 176 | 25.7 | 48.3 | 0.00 | 0.00 | 0.00 | 93 | 1011.8 |
| 20260507115002 | 11 | 175 | 27.4 | 59.5 | 0.00 | 0.00 | 0.00 | 94 | 1011.8 |
| 20260507114502 | 11 | 178 | 27.4 | 59.5 | 0.00 | 0.00 | 0.00 | 94 | 1011.8 |
| 20260507114002 | 11 | 179 | 25.7 | 54.7 | 0.00 | 0.00 | 0.00 | 94 | 1012.0 |
| 20260507113502 | 11 | 179 | 27.4 | 49.9 | 0.00 | 0.00 | 0.00 | 95 | 1012.2 |
| 20260507113002 | 11 | 179 | 29.0 | 54.7 | 0.00 | 0.00 | 0.00 | 95 | 1012.2 |
| 20260507112502 | 11 | 178 | 27.4 | 54.7 | 0.00 | 0.00 | 0.00 | 95 | 1012.2 |
| 20260507112023 | 11 | 177 | 25.7 | 46.7 | 0.00 | 0.00 | 0.00 | 95 | 1011.7 |
| 20260507111503 | 11 | 177 | 24.1 | 46.7 | 0.00 | 0.00 | 0.00 | 95 | 1011.8 |
| 20260507111002 | 11 | 177 | 24.1 | 41.8 | 0.00 | 0.00 | 0.00 | 96 | 1011.9 |
| 20260507110502 | 11 | 175 | 24.1 | 41.8 | 0.00 | 0.00 | 0.00 | 96 | 1012.0 |
| 20260507110002 | 10 | 173 | 25.7 | 41.8 | 0.00 | 0.00 | 0.00 | 96 | 1012.0 |
| 20260507105523 | 10 | 179 | 24.1 | 43.5 | 0.00 | 0.00 | 0.00 | 96 | 1012.1 |
| 20260507105002 | 11 | 186 | 22.5 | 43.5 | 0.00 | 0.00 | 0.00 | 96 | 1012.7 |
| 20260507104502 | 10 | 185 | 24.1 | 40.2 | 0.00 | 0.00 | 0.00 | 96 | 1012.9 |
| 20260507104003 | 10 | 182 | 22.5 | 40.2 | 0.00 | 0.00 | 0.00 | 96 | 1012.9 |
| 20260507103502 | 10 | 182 | 20.9 | 40.2 | 0.00 | 0.00 | 0.00 | 96 | 1012.7 |
| 20260507103002 | 10 | 179 | 22.5 | 40.2 | 0.00 | 0.00 | 0.00 | 96 | 1012.8 |
| 20260507102502 | 10 | 177 | 20.9 | 43.5 | 0.00 | 0.00 | 0.00 | 96 | 1012.5 |
| 20260507102023 | 10 | 181 | 20.9 | 43.5 | 0.00 | 0.00 | 0.00 | 96 | 1012.7 |
| 20260507101502 | 10 | 183 | 17.7 | 35.4 | 0.00 | 0.00 | 0.00 | 96 | 1012.7 |
| 20260507101002 | 10 | 185 | 16.1 | 29.0 | 0.00 | 0.00 | 0.00 | 96 | 1013.0 |
| 20260507100502 | 10 | 183 | 16.1 | 29.0 | 0.00 | 0.00 | 0.00 | 96 | 1013.0 |
| 20260507100002 | 10 | 177 | 17.7 | 32.2 | 0.00 | 0.00 | 0.00 | 96 | 1012.7 |
| 20260507095502 | 10 | 181 | 17.7 | 32.2 | 0.00 | 0.00 | 0.00 | 96 | 1012.6 |
| 20260507095002 | 10 | 188 | 16.1 | 29.0 | 0.00 | 0.00 | 0.00 | 96 | 1013.1 |
| 20260507094502 | 10 | 189 | 17.7 | 29.0 | 0.00 | 0.00 | 0.00 | 96 | 1013.2 |
| 20260507094002 | 10 | 186 | 17.7 | 30.6 | 0.00 | 0.00 | 0.00 | 96 | 1013.0 |
| 20260507093502 | 10 | 182 | 17.7 | 30.6 | 0.00 | 0.00 | 0.00 | 96 | 1013.0 |
| 20260507093002 | 10 | 185 | 17.7 | 32.2 | 0.00 | 0.00 | 0.00 | 96 | 1012.9 |
| 20260507092502 | 10 | 188 | 19.3 | 37.0 | 0.00 | 0.00 | 0.00 | 96 | 1013.0 |
| 20260507092023 | 10 | 186 | 19.3 | 37.0 | 0.00 | 0.00 | 0.00 | 96 | 1013.4 |
| 20260507091502 | 10 | 185 | 16.1 | 33.8 | 0.00 | 0.00 | 0.00 | 96 | 1013.2 |
| 20260507091023 | 10 | 187 | 14.5 | 30.6 | 0.00 | 0.00 | 0.00 | 96 | 1013.1 |
| 20260507090502 | 10 | 188 | 16.1 | 29.0 | 0.00 | 0.00 | 0.00 | 96 | 1013.0 |
| 20260507090023 | 10 | 189 | 16.1 | 29.0 | 0.00 | 0.00 | 0.00 | 96 | 1013.2 |
| 20260507085502 | 10 | 190 | 16.1 | 29.0 | 0.00 | 0.00 | 0.00 | 96 | 1013.1 |
| 20260507085023 | 10 | 185 | 17.7 | 35.4 | 0.00 | 0.00 | 0.00 | 96 | 1013.1 |
| 20260507084523 | 10 | 181 | 17.7 | 35.4 | 0.00 | 0.00 | 0.00 | 96 | 1013.2 |
| 20260507084023 | 10 | 178 | 19.3 | 33.8 | 0.00 | 0.00 | 0.00 | 95 | 1013.0 |
| 20260507083502 | 10 | 178 | 20.9 | 33.8 | 0.00 | 0.00 | 0.00 | 95 | 1012.9 |
| 20260507083002 | 10 | 178 | 19.3 | 33.8 | 0.00 | 0.00 | 0.00 | 95 | 1013.1 |
| 20260507082523 | 10 | 177 | 19.3 | 35.4 | 0.00 | 0.00 | 0.00 | 95 | 1013.1 |
| 20260507082002 | 10 | 176 | 19.3 | 41.8 | 0.00 | 0.00 | 0.00 | 95 | 1013.0 |
| 20260507081502 | 10 | 178 | 17.7 | 41.8 | 0.00 | 0.00 | 0.00 | 95 | 1013.2 |
| 20260507081002 | 10 | 182 | 17.7 | 37.0 | 0.00 | 0.00 | 0.00 | 95 | 1013.5 |
| 20260507080502 | 10 | 183 | 16.1 | 35.4 | 0.00 | 0.00 | 0.00 | 94 | 1013.4 |
| 20260507080002 | 10 | 184 | 16.1 | 30.6 | 0.00 | 0.00 | 0.00 | 94 | 1013.6 |
| 20260507075502 | 10 | 183 | 17.7 | 33.8 | 0.00 | 0.00 | 0.00 | 94 | 1013.7 |
| 20260507075002 | 10 | 183 | 19.3 | 33.8 | 0.00 | 0.00 | 0.00 | 94 | 1013.7 |
| 20260507074502 | 10 | 183 | 17.7 | 37.0 | 0.00 | 0.00 | 0.00 | 94 | 1013.6 |
| 20260507074002 | 10 | 185 | 17.7 | 37.0 | 0.00 | 0.00 | 0.00 | 94 | 1013.6 |
| 20260507073502 | 10 | 188 | 19.3 | 38.6 | 0.00 | 0.00 | 0.00 | 94 | 1013.8 |
| 20260507073002 | 10 | 187 | 20.9 | 43.5 | 0.00 | 0.00 | 0.00 | 94 | 1013.7 |
| 20260507072503 | 10 | 183 | 17.7 | 43.5 | 0.00 | 0.00 | 0.00 | 95 | 1013.9 |
| 20260507072002 | 10 | 181 | 16.1 | 33.8 | 0.00 | 0.00 | 0.00 | 95 | 1013.8 |
| 20260507071502 | 10 | 188 | 14.5 | 33.8 | 0.00 | 0.00 | 0.00 | 95 | 1013.9 |
| 20260507071002 | 10 | 191 | 14.5 | 27.4 | 0.00 | 0.00 | 0.00 | 95 | 1014.0 |
| 20260507070523 | 10 | 190 | 14.5 | 27.4 | 0.00 | 0.00 | 0.00 | 95 | 1014.1 |
| 20260507070003 | 10 | 191 | 14.5 | 25.7 | 0.00 | 0.00 | 0.00 | 95 | 1014.2 |
| 20260507065502 | 10 | 187 | 14.5 | 29.0 | 0.00 | 0.00 | 0.00 | 95 | 1014.2 |
| 20260507065002 | 10 | 187 | 16.1 | 29.0 | 0.00 | 0.00 | 0.00 | 95 | 1014.2 |
| 20260507064502 | 10 | 186 | 16.1 | 27.4 | 0.00 | 0.00 | 0.00 | 95 | 1014.1 |
| 20260507064002 | 10 | 185 | 17.7 | 32.2 | 0.00 | 0.00 | 0.00 | 95 | 1014.2 |
| 20260507063502 | 11 | 187 | 16.1 | 32.2 | 0.00 | 0.00 | 0.00 | 95 | 1014.3 |
| 20260507063023 | 11 | 184 | 12.9 | 27.4 | 0.00 | 0.00 | 0.00 | 95 | 1014.3 |
| 20260507062502 | 11 | 178 | 11.3 | 22.5 | 0.00 | 0.00 | 0.00 | 95 | 1014.3 |
| 20260507062002 | 11 | 181 | 12.9 | 25.7 | 0.00 | 0.00 | 0.00 | 95 | 1014.4 |
| 20260507061502 | 11 | 183 | 14.5 | 25.7 | 0.00 | 0.00 | 0.00 | 95 | 1014.4 |
| 20260507061002 | 11 | 186 | 16.1 | 30.6 | 0.00 | 0.00 | 0.00 | 96 | 1014.4 |
| 20260507060523 | 11 | 187 | 17.7 | 32.2 | 0.00 | 0.00 | 0.00 | 96 | 1014.5 |
| 20260507060002 | 11 | 188 | 17.7 | 32.2 | 0.00 | 0.00 | 0.00 | 96 | 1014.5 |
| 20260507055502 | 11 | 188 | 16.1 | 27.4 | 0.00 | 0.00 | 0.00 | 96 | 1014.6 |
| 20260507055002 | 11 | 187 | 17.7 | 27.4 | 0.00 | 0.00 | 0.00 | 95 | 1014.6 |
| 20260507054523 | 11 | 187 | 17.7 | 25.7 | 0.00 | 0.00 | 0.00 | 95 | 1014.6 |